This demonstration page uses our WeatherBlox Daily Observations layout. Learn more.

Left ArrowRight Arrow

36.17497, -115.13722

Hourly Observations for July 13, 2021

Temp ( °F °C ) Dew Point ( °F °C ) Humidity (%) Winds ( mph kmh ) Pressure ( in mb ) Visibility ( mi km ) Precip ( " mm )
12:02 am 00:02 Mostly Clear 87 30.6 63 17.2 45 45 E 13 20 29.73 1007 10 16 0.00 0.00
12:35 am 00:35 Partly Cloudy with Thunderstorms 89 31.7 62 16.7 41 41 S 3 6 29.76 1008 10 16 0.00 0.00
12:50 am 00:50 Clear with Nearby Thunderstorms 90 32 61 16 38 38 Calm 29.74 1007 10 16 0.00 0.00
12:53 am 00:53 Clear with Nearby Thunderstorms 89 31.7 61 16.1 39 39 VRB 3 6 29.86 1011 10 16 0.00 0.00
1:17 am 01:17 Clear 91 32.8 61 16.1 37 37 S 9 15 29.75 1007 10 16 0.00 0.00
1:53 am 01:53 Mostly Clear 92 33.3 61 16.1 36 36 WSW 9 15 29.84 1011 10 16 0.00 0.00
2:53 am 02:53 Clear 89 31.7 63 17.2 42 42 SE 5 7 29.80 1009 10 16 0.00 0.00
3:53 am 03:53 Clear 89 31.7 63 17.2 42 42 NE 5 7 29.81 1010 10 16 0.00 0.00
4:53 am 04:53 Clear 88 31.1 64 17.8 45 45 Calm 29.81 1009 10 16 0.00 0.00
5:53 am 05:53 Sunny 87 30.6 65 18.3 48 48 E 5 7 29.83 1010 10 16 0.00 0.00
6:53 am 06:53 Sunny 89 31.7 64 17.8 43 43 E 15 24 29.87 1011 10 16 0.00 0.00
7:53 am 07:53 Sunny 91 32.8 64 17.8 41 41 ESE 13 20 29.89 1012 10 16 0.00 0.00
8:53 am 08:53 Sunny 92 33.3 63 17.2 38 38 ESE 9 15 29.89 1012 10 16 0.00 0.00
9:53 am 09:53 Sunny 95 35 61 16.1 32 32 ENE 8 13 29.89 1012 10 16 0.00 0.00
10:53 am 10:53 Sunny 97 36.1 60 15.6 29 29 ESE 5 7 29.88 1012 10 16 0.00 0.00
11:53 am 11:53 Sunny 100 37.8 60 15.6 27 27 SE 8 13 29.86 1011 10 16 0.00 0.00
12:53 pm 12:53 Sunny 103 39.4 60 15.6 24 24 ESE 9 15 29.82 1010 10 16 0.00 0.00
1:53 pm 13:53 Sunny 106 41.1 58 14.4 21 21 E 8 13 29.78 1008 10 16 0.00 0.00
2:53 pm 14:53 Sunny 108 42.2 58 14.4 19 19 ESE 12 19 29.74 1007 10 16 0.00 0.00
3:53 pm 15:53 Sunny 108 42.2 58 14.4 19 19 VRB 3 6 29.71 1006 10 16 0.00 0.00
4:53 pm 16:53 Sunny 109 42.8 57 13.9 18 18 E 16 26 29.68 1005 10 16 0.00 0.00
5:53 pm 17:53 Sunny 109 42.8 56 13.3 17 17 E 16 26 29.67 1005 10 16 0.00 0.00
6:53 pm 18:53 Sunny 109 42.8 51 10.6 15 15 S 13 20 29.67 1005 10 16 0.00 0.00
7:53 pm 19:53 Sunny 107 41.7 51 10.6 15 15 SSW 15 24 29.69 1005 10 16 0.00 0.00
8:53 pm 20:53 Clear 101 38.3 55 12.8 22 22 ENE 25 41 29.74 1007 10 16 0.00 0.00
9:00 pm 21:00 Clear 101 38.3 55 12.8 22 22 E 28 44 29.59 1002 10 16 0.00 0.00
9:53 pm 21:53 Clear 94 34.4 58 14.4 30 30 ENE 18 30 29.84 1011 10 16 0.00 0.00
10:53 pm 22:53 Clear 85 29.4 64 17.8 50 50 E 13 20 29.88 1012 10 16 0.00 0.00
11:53 pm 23:53 Clear 83 28.3 64 17.8 53 53 SSE 14 22 29.90 1013 10 16 0.00 0.00

Powered by AerisWeather